Regional Weather Roundup
Issued by NWS

Home | Current Version | Previous Version | Text Only | Print | Product List | Glossary On
Versions: 1 2 3 4 5 6 7 8 9 10 11 12 13 14 15 16 17 18 19 20 21 22 23 24 25 26 27 28 29 30 31 32 33 34 35 36 37 38 39 40 41 42 43 44 45 46 47 48 49 50
000
ASUS44 KMEG 241210
RWRTN
TENNESSEE HOURLY STATE WEATHER ROUNDUP
NATIONAL WEATHER SERVICE MEMPHIS TN
700 AM CDT TUE MAY 24 2016

TNZ002-004-019-021-049-052-054-088>092-241300-
WEST TENNESSEE

CITY           SKY/WX    TMP DP  RH WIND       PRES   REMARKS
MEMPHIS INTL   MOSUNNY   70  55  59 SE7       30.04R
NWS MEMPHIS      N/A     64 N/A N/A MISG        N/A
JACKSON        PTSUNNY   62  58  86 CALM      30.05R
DYERSBURG      CLOUDY    66  55  68 S3        30.03R
UNION CITY     MOSUNNY   63  63 100 SE3       30.03R
PARIS          MOSUNNY   61  57  88 CALM      30.06R
LEXINGTON      SUNNY     55  55 100 CALM      30.06R
$$

TNZ008-025-027-028-033-062-065-066-241300-
NORTH MIDDLE TENNESSEE

CITY           SKY/WX    TMP DP  RH WIND       PRES   REMARKS
NASHVILLE      MOSUNNY   59  53  80 CALM      30.10R
CLARKSVILLE    SUNNY     58  54  86 E5        30.07R
SMYRNA         SUNNY     56  53  89 CALM      30.11R
COOKEVILLE     SUNNY     54  52  94 CALM      30.11R
CROSSVILLE     SUNNY     57  49  74 CALM      30.16R
$$

TNZ061-075-076-078-094-096-097-241300-
SOUTH MIDDLE TENNESSEE

CITY           SKY/WX    TMP DP  RH WIND       PRES   REMARKS
FAYETTEVILLE   SUNNY     61  54  77 CALM      30.11R
TULLAHOMA      SUNNY     57  55  94 E3        30.12R
WINCHESTER     SUNNY     61  52  72 SE3       30.11S
MCMINNVILLE    SUNNY     54  54 100 CALM      30.12R
COLUMBIA       SUNNY    N/A N/A N/A CALM      30.08R
SHELBYVILLE    SUNNY     61  54  77 SE3       30.11R
$$

TNZ017-018-042-046-047-241300-
NORTHEAST TENNESSEE

CITY           SKY/WX    TMP DP  RH WIND       PRES   REMARKS
TRI CITIES     SUNNY     52  49  89 CALM      30.17R
$$

TNZ012-013-036-069-073-074-241300-
CENTRAL EAST TENNESSEE

CITY           SKY/WX    TMP DP  RH WIND       PRES   REMARKS
KNOXVILLE      MOSUNNY   57  52  83 SW3       30.15R
OAK RIDGE      SUNNY     57  51  80 CALM      30.17R
GATLINBURG     SUNNY     52  48  87 CALM      30.15R
$$

TNZ083-085-099-241300-
SOUTHEAST TENNESSEE

CITY           SKY/WX    TMP DP  RH WIND       PRES   REMARKS
CHATTANOOGA    MOSUNNY   58  53  84 CALM      30.14R
$$

SKY/WX REPORTED AS FAIR MEANS FEW OR NO CLOUDS BELOW
12 THOUSAND FEET.




USA.gov is the U.S. government's official web portal to all federal, state and local government web resources and services.